Probability
16 16 23 23 19 23 19 42 29 45 45 42 39 35 35 42 42 42 71 74 74 77 81 84 94 87 90 94 90 94 97 100 100 100 97 94 87 61 58 45 48 23 23
13 13 19 19 16 19 16 23 16 32 32 35 32 32 35 35 45 45 39 55 58 61 68 74 87 87 84 81 87 94 90 100 100 100 100 100 97 90 71 58 48 42 35
6 10 13 10 10 13 23 13 16 10 13 13 13 16 23 29 26 35 39 35 52 55 58 68 71 77 77 71 77 84 94 94 100 100 100 100 100 97 90 81 71 58 58
3 3 3 3 10 10 10 10 6 6 6 6 6 10 10 23 23 23 26 32 42 35 52 58 74 74 68 74 65 71 77 81 90 94 97 97 97 94 90 87 77 68 48
3 3 3 3 3 3 3 3 3 3 3 3 3 3 6 6 13 10 13 26 39 42 35 52 58 48 45 42 58 58 74 68 71 74 84 90 90 84 81 81 81 61 42
3 3 3 3 3 3 3 3 3 3 3 3 0 0 3 3 3 6 6 13 23 29 32 32 48 48 39 48 55 58 48 55 71 65 68 71 81 87 71 61 55 48 29
3 3 3 3 3 3 0 3 3 3 0 0 0 3 3 0 0 0 3 10 3 10 19 29 39 48 52 42 45 52 48 39 42 45 58 68 65 65 58 52 42 16 19
3 3 3 3 3 3 0 0 0 0 0 0 0 0 0 0 0 0 0 3 3 6 6 16 23 23 29 55 23 29 39 32 32 35 45 52 55 52 39 42 35 10 13
3 3 3 3 3 0 0 0 0 0 0 0 0 0 0 0 0 0 0 0 0 0 0 10 16 16 13 19 29 10 19 32 26 26 39 42 32 23 23 26 32 19 10
3 3 3 3 0 0 0 0 0 0 0 0 0 0 0 0 0 0 0 0 0 0 0 3 3 13 13 16 16 6 6 3 10 13 29 23 26 19 10 19 26 35 32
3 3 3 3 0 0 0 0 0 0 0 0 0 0 0 0 0 0 0 0 0 0 0 0 3 3 3 6 10 0 0 3 3 3 16 13 16 10 13 23 32 35 35
3 3 3 3 3 0 0 0 0 0 0 0 0 0 0 0 0 0 0 0 0 0 0 0 0 0 0 6 0 0 0 0 0 0 0 3 3 6 6 10 19 29 35
3 3 3 3 3 0 0 0 0 0 0 0 0 0 0 0 0 0 0 0 0 0 0 0 0 0 0 0 0 0 0 0 0 0 0 0 0 0 3 3 6 10 16
3 3 3 3 3 0 0 0 0 0 0 0 0 0 0 0 0 0 0 0 0 0 0 0 0 0 0 0 0 0 0 0 0 0 0 0 0 0 0 0 0 0 0
3 6 3 0 0 0 0 0 0 0 0 0 0 0 0 0 0 0 0 0 0 0 0 0 0 0 0 0 0 0 0 0 0 0 0 0 0 0 0 0 0 0 0
10 6 3 0 0 0 0 0 0 0 0 0 0 0 0 0 0 0 0 0 0 0 0 0 0 0 0 0 0 0 0 0 0 0 0 0 0 0 0 0 0 0 0
16 10 6 0 0 0 0 0 0 0 0 0 0 0 0 0 0 0 0 0 0 0 0 0 0 0 0 0 0 0 0 0 0 0 0 0 0 0 0 0 0 0 0
23 13 3 3 0 0 0 0 0 0 0 0 0 0 0 0 0 0 0 0 0 0 0 0 0 0 0 0 0 0 0 0 0 0 0 0 0 0 0 0 0 0 0
35 16 13 6 0 0 0 0 0 0 0 0 0 0 0 0 0 0 0 0 0 0 0 0 0 0 0 0 0 0 0 0 0 0 0 0 0 0 0 0 0 0 0
42 16 13 6 3 0 0 3 3 0 0 0 0 0 0 0 0 0 0 0 0 0 0 0 0 0 0 0 0 0 0 0 0 0 0 0 0 0 0 0 0 0 0
26 19 13 10 10 0 0 0 3 0 3 3 0 0 0 0 0 0 0 0 0 0 0 0 0 0 0 0 0 0 0 0 0 0 0 0 0 0 0 0 0 0 0
32 13 13 13 10 0 0 0 0 0 0 3 3 3 0 0 0 0 0 0 0 0 0 0 0 0 0 0 0 0 0 0 0 0 0 0 0 0 0 0 0 0 0
35 23 19 10 3 0 0 0 0 0 0 3 3 3 0 0 0 0 0 0 0 0 0 0 0 0 0 0 0 0 0 0 0 0 0 0 0 0 0 0 0 0 0
19 23 23 10 19 0 0 0 0 0 0 3 3 3 6 10 0 0 0 0 0 0 0 0 0 0 0 0 0 0 0 0 0 0 0 0 0 0 0 0 0 0 0
13 10 6 13 13 10 0 0 0 0 0 0 0 0 6 6 0 0 0 0 3 3 0 0 0 0 0 0 0 0 0 0 0 0 0 0 0 0 0 0 0 0 0
13 6 6 6 10 13 0 0 0 0 0 0 6 6 0 0 0 0 0 0 0 0 0 0 0 0 0 0 0 0 0 0 0 0 0 0 0 0 0 0 0 0 0
Height
5889 5889 5888 5888 5888 5887 5887 5887 5887 5887 5887 5887 5886 5887 5887 5887 5887 5887 5887 5888 5888 5889 5889 5889 5890 5891 5892 5893 5895 5897 5899 5901 5902 5904 5906 5908 5909 5911 5912 5913 5914 5915 5916
5887 5887 5887 5887 5886 5886 5886 5885 5885 5885 5885 5884 5884 5884 5884 5884 5884 5884 5885 5885 5885 5886 5886 5886 5887 5888 5889 5890 5891 5893 5895 5897 5899 5901 5903 5905 5907 5909 5910 5912 5913 5914 5915
5886 5886 5886 5885 5885 5884 5884 5884 5883 5883 5883 5883 5882 5882 5882 5882 5882 5882 5882 5882 5882 5882 5883 5883 5884 5884 5885 5886 5887 5889 5891 5893 5895 5897 5900 5902 5904 5906 5908 5909 5911 5913 5914
5884 5884 5884 5884 5883 5883 5882 5882 5882 5881 5881 5881 5880 5880 5880 5880 5880 5879 5879 5879 5879 5879 5880 5880 5881 5881 5882 5882 5884 5885 5886 5888 5890 5893 5895 5898 5900 5902 5904 5907 5908 5910 5912
5883 5883 5883 5883 5882 5882 5881 5881 5880 5880 5880 5879 5879 5878 5878 5878 5878 5877 5877 5877 5877 5877 5877 5877 5877 5878 5878 5879 5880 5881 5882 5884 5886 5888 5890 5893 5895 5898 5900 5903 5905 5907 5909
5882 5882 5882 5881 5881 5881 5880 5880 5879 5879 5878 5878 5877 5877 5876 5876 5876 5875 5875 5874 5874 5874 5874 5874 5874 5874 5875 5875 5876 5877 5878 5879 5881 5883 5885 5888 5890 5893 5896 5898 5901 5903 5906
5881 5881 5881 5881 5880 5880 5879 5879 5878 5878 5877 5877 5876 5875 5875 5874 5874 5873 5873 5872 5872 5872 5871 5871 5871 5871 5872 5872 5872 5873 5874 5875 5877 5879 5881 5883 5885 5888 5891 5893 5896 5899 5901
5881 5880 5880 5880 5879 5879 5878 5878 5878 5877 5876 5876 5875 5874 5874 5873 5872 5871 5870 5870 5870 5869 5869 5868 5868 5868 5868 5869 5869 5869 5870 5872 5873 5874 5876 5878 5880 5882 5885 5888 5890 5893 5896
5880 5880 5879 5879 5879 5878 5878 5877 5877 5876 5876 5875 5874 5873 5873 5872 5871 5870 5869 5868 5867 5867 5866 5866 5865 5865 5865 5865 5865 5866 5866 5867 5868 5869 5871 5872 5874 5876 5879 5881 5884 5887 5890
5879 5879 5879 5878 5878 5877 5877 5876 5876 5875 5875 5874 5873 5872 5871 5870 5869 5868 5867 5866 5865 5864 5863 5863 5862 5862 5862 5861 5862 5862 5862 5863 5864 5865 5866 5867 5868 5871 5873 5875 5878 5881 5884
5878 5878 5877 5877 5877 5876 5876 5875 5875 5874 5873 5872 5871 5870 5869 5868 5866 5865 5864 5863 5862 5861 5860 5860 5859 5858 5858 5858 5858 5858 5858 5858 5859 5860 5861 5862 5863 5865 5867 5869 5871 5874 5877
5876 5876 5876 5875 5875 5875 5874 5874 5873 5872 5871 5870 5869 5868 5867 5865 5864 5863 5861 5860 5859 5858 5857 5856 5855 5854 5854 5853 5853 5853 5853 5853 5854 5854 5855 5856 5857 5859 5860 5862 5864 5867 5869
5875 5874 5874 5874 5873 5873 5872 5871 5871 5870 5869 5868 5867 5865 5864 5862 5861 5859 5858 5857 5855 5854 5853 5852 5851 5850 5849 5848 5848 5847 5848 5848 5848 5848 5849 5850 5851 5852 5853 5855 5857 5859 5862
5872 5872 5872 5871 5871 5870 5869 5869 5868 5867 5866 5865 5864 5862 5860 5859 5857 5855 5854 5852 5851 5850 5848 5847 5846 5845 5843 5843 5842 5841 5841 5841 5841 5842 5842 5843 5844 5845 5846 5848 5850 5852 5854
5870 5869 5869 5868 5867 5867 5866 5865 5864 5863 5862 5861 5859 5858 5856 5855 5853 5851 5849 5847 5846 5844 5843 5841 5840 5839 5838 5837 5836 5835 5834 5834 5834 5834 5834 5835 5836 5837 5838 5840 5842 5843 5846
5866 5866 5865 5864 5864 5863 5862 5861 5860 5858 5857 5856 5854 5853 5851 5850 5848 5846 5844 5842 5840 5838 5836 5835 5834 5833 5831 5830 5829 5828 5827 5826 5826 5826 5826 5826 5827 5828 5829 5831 5832 5834 5836
5862 5861 5861 5860 5859 5858 5857 5856 5854 5853 5852 5850 5849 5847 5846 5844 5842 5840 5838 5836 5834 5832 5830 5828 5826 5825 5824 5822 5821 5820 5819 5818 5817 5817 5816 5816 5817 5817 5818 5820 5822 5824 5826
5857 5856 5855 5854 5853 5852 5851 5850 5848 5847 5845 5844 5842 5841 5839 5837 5835 5834 5832 5829 5827 5825 5823 5821 5819 5817 5816 5814 5813 5812 5810 5809 5808 5808 5807 5806 5806 5807 5807 5809 5810 5812 5814
5851 5850 5849 5848 5847 5846 5844 5843 5841 5840 5838 5836 5835 5833 5832 5830 5828 5826 5824 5822 5820 5818 5815 5813 5811 5809 5807 5806 5804 5803 5802 5800 5799 5798 5797 5796 5796 5796 5796 5797 5798 5800 5802
5845 5844 5843 5842 5840 5839 5837 5835 5833 5832 5830 5828 5827 5825 5823 5821 5819 5817 5815 5813 5811 5809 5807 5805 5802 5800 5798 5796 5795 5794 5792 5791 5789 5787 5786 5785 5785 5784 5784 5785 5786 5787 5789
5838 5837 5836 5834 5833 5831 5829 5827 5825 5823 5821 5820 5818 5816 5814 5812 5810 5808 5806 5803 5801 5799 5797 5795 5793 5791 5788 5786 5785 5783 5782 5780 5779 5777 5776 5774 5773 5773 5772 5772 5773 5774 5775
5830 5829 5828 5826 5824 5822 5820 5818 5816 5814 5812 5810 5808 5806 5804 5802 5800 5798 5795 5793 5791 5789 5786 5785 5783 5781 5778 5776 5774 5773 5771 5770 5768 5766 5764 5763 5761 5761 5760 5760 5760 5761 5761
5821 5820 5818 5816 5815 5813 5810 5808 5805 5803 5802 5800 5798 5795 5793 5791 5789 5786 5784 5782 5780 5777 5775 5773 5772 5769 5767 5765 5763 5761 5760 5758 5756 5754 5752 5751 5749 5748 5747 5747 5747 5748 5748
5812 5810 5808 5806 5804 5802 5799 5797 5794 5792 5790 5789 5786 5783 5781 5779 5776 5774 5771 5770 5768 5765 5763 5761 5760 5758 5755 5753 5750 5749 5747 5746 5744 5742 5740 5739 5737 5735 5734 5734 5734 5734 5734
5801 5799 5797 5795 5793 5790 5787 5785 5781 5779 5777 5776 5773 5770 5768 5766 5764 5760 5757 5756 5754 5752 5750 5748 5746 5745 5742 5740 5738 5736 5735 5733 5732 5730 5727 5726 5724 5722 5722 5721 5720 5721 5721
5790 5788 5785 5782 5780 5777 5774 5771 5768 5765 5763 5761 5758 5756 5754 5751 5749 5745 5742 5740 5739 5738 5735 5733 5732 5730 5728 5726 5724 5722 5721 5719 5718 5717 5715 5713 5711 5709 5709 5708 5707 5707 5707
Wind_Speed
6 6 5 5 5 5 5 6 6 6 6 6 6 7 7 8 9 10 10 12 13 14 15 16 16 16 17 18 19 20 20 20 19 18 17 17 16 15 13 12 10 9 7
5 5 4 4 4 5 5 5 6 6 7 7 7 7 8 8 9 10 11 11 13 14 15 16 16 16 17 18 19 20 21 22 22 21 20 19 18 17 16 15 13 11 10
3 3 3 3 4 5 5 5 5 5 6 6 7 7 7 8 9 10 11 12 12 13 14 15 16 16 17 18 18 19 21 22 23 24 23 21 20 19 19 17 16 14 12
3 2 2 3 3 4 5 5 5 5 6 6 6 6 7 8 9 10 11 12 13 13 14 14 15 16 16 17 17 18 21 22 23 25 26 24 23 22 21 20 19 17 15
2 2 2 2 3 3 4 4 5 5 5 6 6 6 6 7 8 9 10 11 12 13 14 15 16 16 16 16 17 17 19 21 24 25 26 27 26 24 24 23 22 20 19
2 1 1 1 2 3 4 4 4 5 5 6 6 6 7 7 8 8 9 10 11 12 14 14 15 16 16 17 17 17 18 19 21 24 26 28 28 27 26 25 25 23 22
1 1 0 1 2 3 4 4 4 4 5 5 5 6 6 7 8 8 9 10 10 12 12 13 14 15 16 17 18 18 18 18 19 21 23 27 29 29 29 29 28 27 25
2 1 0 1 2 3 4 4 4 4 5 5 5 6 6 7 8 8 9 10 10 11 12 13 14 15 15 17 17 18 18 19 19 20 21 24 29 31 31 31 30 30 29
2 1 1 1 2 3 4 4 4 5 5 5 5 6 7 8 8 9 9 10 11 12 12 13 14 15 16 16 17 18 19 19 20 20 21 22 25 30 32 32 32 32 32
3 2 1 1 1 2 3 4 4 5 5 6 6 7 8 9 10 10 10 11 11 12 13 14 15 15 16 17 18 18 19 20 21 21 22 23 23 26 29 31 32 33 33
3 3 2 2 3 3 4 4 5 6 6 7 7 8 9 10 10 11 11 12 12 13 14 15 16 17 18 18 19 20 20 21 22 23 24 24 25 26 27 29 31 33 34
4 4 4 4 5 5 6 6 7 7 8 9 9 10 10 11 12 12 13 14 14 15 16 17 17 18 19 20 21 21 22 22 23 23 24 25 27 28 29 29 29 32 34
6 6 6 7 7 8 8 9 9 10 10 11 12 12 13 14 14 15 15 16 16 17 18 18 19 20 20 21 22 23 24 25 25 26 26 27 27 28 29 31 31 32 34
9 9 9 9 10 11 11 11 12 12 13 13 14 14 15 16 17 18 18 19 19 19 19 20 20 21 22 22 23 25 25 26 27 28 29 30 30 31 31 32 33 34 34
12 12 12 13 13 13 14 15 15 16 16 16 17 17 18 18 19 19 20 21 21 22 22 22 22 22 23 23 24 25 26 27 29 30 32 33 33 34 34 35 35 36 36
15 15 16 16 17 17 17 18 19 19 19 19 19 20 20 20 20 21 22 22 23 24 25 25 24 24 24 25 26 27 28 29 30 31 33 34 36 37 38 38 39 39 39
18 19 19 20 20 20 21 21 22 22 22 22 23 23 23 23 23 24 24 25 25 25 26 27 27 27 27 26 26 28 29 30 31 32 33 35 37 38 39 41 41 42 43
22 22 23 23 23 23 24 24 24 25 25 25 25 25 26 26 26 26 26 27 27 27 27 28 28 29 29 28 28 29 30 30 32 33 34 35 37 38 40 41 43 44 45
25 25 26 26 26 26 26 27 27 27 28 28 28 28 28 28 28 28 28 28 28 28 29 29 30 30 30 30 30 30 31 31 32 33 34 35 37 38 40 42 43 45 46
27 28 28 29 29 28 29 29 29 30 30 30 30 29 30 30 31 31 31 31 31 31 31 31 32 32 32 32 32 32 32 32 32 33 34 35 36 38 40 42 43 45 46
30 31 31 31 31 31 31 31 32 32 32 32 32 32 32 32 33 33 34 33 33 33 34 33 33 34 35 35 34 34 34 34 34 35 35 36 37 38 40 42 43 45 46
32 33 32 32 33 33 33 34 34 34 34 34 34 34 35 35 35 36 36 36 36 36 36 36 36 36 37 37 37 37 36 36 36 36 37 38 38 39 40 41 43 44 45
34 34 34 34 34 35 36 37 37 37 37 36 37 38 38 39 38 39 39 39 39 39 39 39 39 39 39 39 40 39 38 37 37 38 39 39 40 40 40 41 42 44 45
36 37 37 37 37 38 39 40 41 42 41 41 41 42 42 42 42 43 43 42 42 42 43 43 42 42 42 42 42 42 41 40 39 40 40 40 40 41 41 41 41 43 44
39 40 40 41 41 42 42 43 45 45 46 46 46 46 46 46 46 47 47 46 46 45 45 45 45 44 44 44 44 44 43 42 41 41 41 41 41 42 41 41 42 42 43
42 43 43 44 45 45 46 47 49 50 51 50 50 50 50 49 50 51 51 51 49 48 49 49 48 47 46 46 46 45 45 44 43 42 42 42 42 42 41 41 42 43 43
Wind_Direction
280 285 291 299 303 306 307 305 299 295 290 285 278 272 269 266 265 263 257 251 250 251 251 251 250 245 238 233 231 229 226 225 224 224 225 225 226 226 225 223 220 219 218
273 280 285 293 301 307 310 308 302 297 292 288 283 277 272 268 266 264 261 258 256 254 253 254 253 249 247 243 239 234 230 227 226 225 225 227 228 228 228 227 225 223 223
271 282 287 298 307 311 312 314 309 304 300 293 285 280 275 270 268 264 262 261 260 258 256 256 257 256 254 250 246 239 234 230 229 227 226 227 228 229 229 229 228 227 226
269 277 287 300 312 318 318 316 312 308 303 300 295 290 285 279 275 271 265 264 263 261 260 260 261 260 257 254 254 249 240 236 233 230 227 226 227 228 229 229 229 229 228
262 270 288 308 325 331 329 323 317 310 306 305 301 297 295 290 282 278 271 267 266 264 263 263 263 263 262 260 256 255 247 242 239 235 232 229 228 228 229 230 230 230 230
254 274 292 314 331 340 342 337 329 321 316 312 307 301 297 295 291 285 279 274 270 268 267 266 264 263 263 263 261 259 254 248 244 240 237 233 230 229 229 230 231 231 231
218 235 275 339 347 349 348 346 343 337 331 325 320 313 306 301 298 294 289 283 278 274 271 269 266 264 261 261 262 261 257 254 250 246 243 238 234 232 231 230 231 231 232
192 186 168 26 9 6 1 358 352 343 336 333 329 323 317 312 306 300 296 290 285 280 276 274 273 270 267 265 263 260 258 255 254 252 249 245 240 236 234 233 233 232 232
188 193 205 347 2 1 356 356 355 350 345 338 332 324 319 315 311 307 302 297 291 285 281 277 275 274 272 270 267 263 261 257 255 254 252 250 245 241 238 236 235 234 234
204 212 231 276 331 342 347 348 348 344 338 333 332 328 321 315 311 308 305 300 294 290 285 280 277 276 275 273 270 268 265 262 259 257 253 252 249 245 243 241 239 238 236
221 229 244 272 298 311 319 324 326 325 324 323 323 321 319 317 313 309 305 301 296 293 290 285 280 277 275 274 272 270 268 265 262 259 256 253 254 251 246 245 243 242 240
239 251 262 276 288 294 299 304 307 309 310 310 311 312 312 312 311 309 305 301 296 293 290 287 283 280 277 275 272 270 269 266 264 262 259 257 255 253 249 248 246 245 244
251 260 269 278 283 286 290 294 297 298 301 303 304 305 305 306 306 306 305 302 298 294 291 288 285 282 279 276 274 271 269 267 265 263 261 260 259 255 253 251 248 247 246
259 265 271 276 279 283 286 289 292 293 295 296 298 299 300 301 301 302 302 301 298 296 293 290 286 284 282 279 276 273 271 268 266 264 262 261 260 257 255 253 251 250 248
265 269 272 275 278 281 284 286 288 289 291 292 292 294 295 297 297 298 299 298 297 295 292 290 287 284 283 281 279 276 273 271 268 266 264 262 261 259 256 254 253 251 250
269 272 274 275 277 280 282 283 285 287 288 289 290 292 293 293 293 293 294 295 295 293 291 290 289 287 284 282 280 278 276 273 271 269 267 264 262 260 258 255 254 253 251
271 274 275 276 278 279 281 283 285 285 286 287 288 290 291 292 292 293 293 293 292 292 291 290 289 288 287 285 282 280 279 277 274 272 270 267 264 262 260 258 256 254 252
273 275 277 277 279 281 282 283 285 285 286 286 288 289 290 291 291 292 292 292 291 291 290 289 289 288 287 286 285 283 280 279 277 275 272 270 267 264 261 260 258 255 253
275 277 278 279 281 282 283 284 285 285 286 286 287 288 289 289 289 290 291 291 290 289 288 288 289 289 287 286 285 284 282 280 279 278 276 273 270 267 264 262 260 258 256
278 279 280 281 282 283 284 285 286 286 286 286 286 287 288 288 289 289 290 290 289 288 287 287 288 287 287 286 285 284 283 282 281 280 279 276 273 270 267 265 262 260 258
280 281 281 283 283 284 285 285 286 286 286 286 286 286 288 288 288 288 288 289 289 288 287 287 287 287 286 285 285 284 284 283 283 282 281 279 276 273 270 268 266 263 261
281 282 283 284 284 285 285 285 285 285 285 285 285 286 287 288 288 287 287 287 288 287 287 287 286 287 286 285 285 285 284 283 283 283 283 281 279 276 273 270 267 265 263
282 283 284 284 285 286 286 285 285 285 284 285 284 284 285 286 286 286 285 285 285 286 286 286 286 286 286 285 284 284 283 283 283 284 283 282 280 278 275 272 269 266 264
283 284 284 285 286 286 286 285 285 284 285 285 285 285 284 284 285 285 284 284 284 284 285 285 285 285 284 284 284 283 283 283 283 284 284 282 280 278 276 274 271 267 265
283 284 285 285 286 285 284 284 285 285 285 284 285 285 284 283 283 284 284 283 283 283 283 283 283 283 283 283 283 282 282 282 283 283 283 282 279 277 276 275 273 269 266
284 285 285 285 286 286 285 284 285 285 284 283 284 284 283 282 283 283 282 282 282 282 282 283 282 281 281 281 281 281 281 281 282 282 282 281 279 278 276 275 273 270 267